Mackall AAF, NC

3:09 PM EDT on September 23, 2017 (GMT -0400)
Mackall Army Air Field

Weather History for KHFF - January, 2013

Change the Weather History Date:

Thursday, January 31, 2013

  Actual Average Record
Temperature  
Mean Temperature 46 °F -  
Max Temperature 57 °F 52 °F 80 °F (2002)
Min Temperature 34 °F 30 °F 10 °F (2014)
Degree Days  
Heating Degree Days 20    
Moisture  
Dew Point 33 °F    
Average Humidity 60    
Maximum Humidity 88    
Minimum Humidity 29    
Precipitation  
Precipitation 0.10 in - - ()
Sea Level Pressure  
Sea Level Pressure 29.84 in    
Wind  
Wind Speed 18 mph (WSW)    
Max Wind Speed 23 mph    
Max Gust Speed 38 mph    
Visibility 10 miles    
Events Rain    
Averages and records for this station are not official NWS values.
T = Trace of Precipitation, MM = Missing Value Source: NWS Daily Summary

Daily Weather History Graph

Daily Weather History Graph

Search for Another Location

Airport or City:

Trip Planner

Search our weather history database for the weather conditions in past years. The results will help you decide how hot, cold, wet, or windy it might be!

Date:

Astronomy

Jan. 31, 2013 Rise Set
Actual Time 7:17 AM EST 5:45 PM EST
Civil Twilight 6:50 AM EST 6:12 PM EST
Nautical Twilight 6:20 AM EST 6:42 PM EST
Astronomical Twilight 5:50 AM EST 7:12 PM EST
Moon 10:32 PM EST (1/31) 9:28 AM EST (1/31)
Length of Visible Light 11h 21m
Length of Day
10h 28m
Waning Gibbous, 80% of the Moon is Illuminated
Jan 31
Waning Gibbous
Feb 3
Last Quarter
Feb 10
New
Feb 17
First Quarter
Feb 25
Full

Hourly Weather History & Observations

Time (EST) Temp. Windchill Dew Point Humidity Pressure Visibility Wind Dir Wind Speed Gust Speed Precip Events Conditions
12:00 AM 57.2 °F - 50.0 °F 77% 29.59 in 10.0 mi WSW 23.0 mph 35.7 mph N/A   Mostly Cloudy
12:06 AM 57.2 °F - 50.0 °F 77% 29.60 in 10.0 mi West 23.0 mph 35.7 mph N/A Rain Light Rain Showers
12:55 AM 52.3 °F - 48.7 °F 88% 29.61 in 9.0 mi SW 21.9 mph 27.6 mph 0.08 in Rain Heavy Rain Showers
1:28 AM 51.8 °F - 48.2 °F 88% 29.60 in 10.0 mi SW 13.8 mph 23.0 mph N/A   Mostly Cloudy
1:55 AM 51.6 °F - 47.5 °F 86% 29.61 in 10.0 mi SW 17.3 mph 24.2 mph 0.02 in   Overcast
2:55 AM 51.6 °F - 46.2 °F 82% 29.61 in 10.0 mi SW 20.7 mph 29.9 mph N/A   Mostly Cloudy
3:55 AM 50.9 °F - 43.9 °F 77% 29.63 in 10.0 mi WSW 18.4 mph 27.6 mph N/A   Partly Cloudy
4:29 AM 51.8 °F - 42.8 °F 71% 29.66 in 10.0 mi WSW 18.4 mph 25.3 mph N/A   Mostly Cloudy
4:55 AM 50.2 °F - 42.4 °F 75% 29.68 in 10.0 mi WSW 13.8 mph 27.6 mph N/A   Mostly Cloudy
5:55 AM 47.1 °F - 37.0 °F 68% 29.72 in 10.0 mi WSW 18.4 mph 26.5 mph N/A   Mostly Cloudy
6:55 AM 45.3 °F 39.0 °F 35.8 °F 69% 29.77 in 10.0 mi WSW 13.8 mph 21.9 mph N/A   Scattered Clouds
7:55 AM 44.4 °F 37.5 °F 35.6 °F 71% 29.83 in 10.0 mi WSW 15.0 mph 20.7 mph N/A   Clear
8:55 AM 45.5 °F 38.1 °F 31.1 °F 57% 29.87 in 10.0 mi West 18.4 mph 25.3 mph N/A   Clear
9:55 AM 46.0 °F 38.5 °F 25.7 °F 45% 29.91 in 10.0 mi WNW 19.6 mph 29.9 mph N/A   Clear
10:55 AM 46.8 °F - 22.3 °F 38% 29.93 in 10.0 mi WNW 18.4 mph 27.6 mph N/A   Clear
11:55 AM 48.6 °F - 21.6 °F 35% 29.92 in 10.0 mi West 18.4 mph 23.0 mph N/A   Clear
12:55 PM 50.0 °F - 21.4 °F 32% 29.91 in 10.0 mi WNW 16.1 mph 26.5 mph N/A   Clear
1:55 PM 50.5 °F - 20.7 °F 31% 29.91 in 10.0 mi West 19.6 mph 29.9 mph N/A   Clear
2:55 PM 51.3 °F - 19.4 °F 29% 29.93 in 10.0 mi West 17.3 mph 38.0 mph N/A   Clear
3:55 PM 51.1 °F - 19.2 °F 29% 29.95 in 10.0 mi WSW 20.7 mph 27.6 mph N/A   Clear
4:55 PM 50.0 °F - 22.1 °F 33% 29.98 in 10.0 mi West 12.7 mph 24.2 mph N/A   Clear
5:55 PM 47.7 °F - 23.2 °F 38% 29.99 in 10.0 mi WSW 10.4 mph 19.6 mph N/A   Clear
6:55 PM 44.8 °F 41.0 °F 25.5 °F 47% 30.02 in 10.0 mi WSW 6.9 mph - N/A   Clear
7:55 PM 40.8 °F 36.9 °F 27.1 °F 58% 30.05 in 10.0 mi NW 5.8 mph - N/A   Clear
8:55 PM 37.4 °F - 32.4 °F 82% 30.07 in 10.0 mi West 2.3 mph - N/A   Clear
9:55 PM 34.2 °F - 29.5 °F 83% 30.06 in 10.0 mi North - - N/A   Clear
10:55 PM 37.8 °F 31.8 °F 27.5 °F 67% 30.08 in 10.0 mi SW 8.1 mph - N/A   Clear
11:55 PM 39.7 °F 33.2 °F 26.4 °F 59% 30.08 in 10.0 mi SW 10.4 mph - N/A   Clear